CDT,Max TemperatureF,Mean TemperatureF,Min TemperatureF,Max Dew PointF,MeanDew PointF,Min DewpointF,Max Humidity, Mean Humidity, Min Humidity, Max Sea Level PressureIn, Mean Sea Level PressureIn, Min Sea Level PressureIn, Max VisibilityMiles, Mean VisibilityMiles, Min VisibilityMiles, Max Wind SpeedMPH, Mean Wind SpeedMPH, Max Gust SpeedMPH,PrecipitationIn, CloudCover, Events, WindDirDegrees
2013-7-1,75,70,65,64,63,62,93,81,68,29.94,29.89,29.83,10,9,2,21,10,28,0.05,7,Rain,353
2013-7-2,70,67,63,63,62,60,93,85,76,30.05,29.97,29.89,10,8,2,16,9,22,T,8,Rain,297
2013-7-3,81,71,61,61,60,56,93,68,42,30.12,30.06,30.03,10,8,5,12,2,15,0.00,5,,323
2013-7-4,85,71,57,67,62,55,100,74,47,30.09,30.05,29.99,10,6,0,14,4,20,0.00,0,Fog-Thunderstorm,86
2013-7-5,85,74,62,68,65,61,100,78,55,30.09,30.05,29.99,10,8,0,13,4,15,0.00,3,Fog,94
2013-7-6,86,76,66,69,66,55,97,72,46,30.08,30.04,29.99,10,10,5,14,4,18,0.00,4,Thunderstorm,152
2013-7-7,90,76,62,72,68,61,100,76,52,30.09,30.05,30.02,10,10,5,14,4,17,0.00,1,,180
2013-7-8,92,81,69,73,70,68,90,69,47,30.13,30.08,30.04,10,10,6,10,4,15,0.00,0,,211
2013-7-9,95,84,73,74,72,69,93,71,49,30.09,30.03,29.96,10,10,8,16,6,20,0.00,0,,215
2013-7-10,89,83,76,75,72,70,91,74,56,30.01,29.94,29.90,10,10,10,14,4,20,T,3,Rain,272
2013-7-11,87,75,63,74,66,58,93,68,43,30.03,29.99,29.94,10,10,9,17,7,23,0.00,1,,23
2013-7-12,86,73,59,63,59,56,93,65,37,30.09,30.05,30.01,10,10,8,15,6,21,0.00,0,,46
2013-7-13,87,73,59,64,61,56,97,70,42,30.06,30.03,29.99,10,10,6,15,5,20,0.00,1,,69
2013-7-14,89,77,64,72,69,62,93,72,50,30.12,30.08,30.02,10,9,2,22,6,26,0.06,3,Rain,97
2013-7-15,90,81,71,75,73,70,94,75,56,30.22,30.18,30.12,10,10,2,15,7,18,0.03,3,Rain,129
2013-7-16,92,82,71,73,72,69,93,71,49,30.29,30.25,30.22,10,10,9,13,3,16,0.00,1,,96
2013-7-17,95,83,70,74,72,69,100,73,46,30.32,30.25,30.18,10,10,7,10,3,14,0.00,0,,67
2013-7-18,96,84,72,76,72,71,100,75,49,30.20,30.12,30.05,10,8,2,13,3,16,0.00,0,,117
2013-7-19,90,80,70,73,71,69,93,73,52,30.06,29.99,29.91,10,8,2,13,5,17,0.00,0,,204
2013-7-20,91,81,71,74,71,67,93,75,56,29.94,29.90,29.81,10,10,6,17,6,24,T,1,Rain,201
2013-7-21,90,80,70,73,70,67,97,75,52,29.95,29.90,29.86,10,9,2,22,4,28,0.09,4,Rain,208
2013-7-22,89,81,72,75,71,69,93,76,59,29.91,29.86,29.79,10,10,5,12,5,17,0.00,5,Rain,240
2013-7-23,92,81,70,74,70,66,93,71,49,29.89,29.84,29.77,10,10,8,22,8,29,0.02,2,Rain-Thunderstorm,240
2013-7-24,84,73,61,69,63,57,97,70,43,30.01,29.93,29.86,10,10,6,16,7,21,0.00,2,,19
2013-7-25,83,70,56,61,57,55,93,67,40,30.10,30.06,30.01,10,10,10,14,4,18,0.00,1,,7
2013-7-26,82,70,58,69,62,57,93,74,54,30.07,30.05,29.97,10,9,2,9,2,13,T,3,Rain,255
2013-7-27,83,71,59,70,64,53,97,71,45,29.99,29.96,29.91,10,9,4,14,6,21,0.03,5,Rain,318
2013-7-28,79,66,53,60,56,52,93,68,42,30.07,30.04,29.99,10,10,10,14,3,20,0.00,0,,203
2013-7-29,81,70,59,63,61,58,97,73,49,30.17,30.13,30.07,10,10,10,9,2,12,0.00,1,,168
2013-7-30,77,72,67,72,70,63,93,86,78,30.14,30.06,30.01,10,6,2,13,4,18,0.49,8,Rain,156
2013-7-31,87,79,71,73,71,69,94,77,59,30.02,30.00,29.95,10,9,4,13,4,16,T,6,Rain,359